Location: 81360 Arifat, France
(43.7204°N, 2.3408°E)
Time: 02:57:50
(UTC+01:00)

Explorer 11/Cluster Stage 4 - Visible Passes

Search period start: 05 December 2025 00:00
Search period end: 15 December 2025 00:00
Orbit: 463 x 1181 km, 28.8° (Epoch: 04 December)

Date Brightness Start Highest point End Pass type
(mag) Time Alt. Az. Time Alt. Az. Time Alt. Az.
10 Dec 9.3 20:16:45 10° S 20:17:16 11° S 20:17:16 11° S visible
11 Dec 9.0 19:52:12 10° S 19:55:02 13° SSE 19:55:06 13° SSE visible
12 Dec 9.0 19:27:47 10° SSW 19:31:12 14° SSE 19:32:53 13° SSE visible
12 Dec 9.5 21:13:41 10° SW 21:14:09 11° SW 21:14:09 11° SW visible
13 Dec 9.0 19:03:28 10° SSW 19:07:20 15° SSE 19:10:39 11° SE visible
13 Dec 9.1 20:49:29 10° SW 20:51:56 17° SSW 20:51:56 17° SSW visible
14 Dec 9.1 18:39:12 10° SSW 18:43:27 16° SSE 18:47:28 10° SE visible
14 Dec 8.8 20:25:18 10° SW 20:29:41 21° S 20:29:41 21° S visible
